EJA409 KLBB-KLAS

Flight info

Callsign EJA409
Flight time N/A
Altitude 41000
Route LBB V62 TXO J72 ABQ HAHAA RKSTR4
Aircraft C68A/M-SDFGHRWY/SB1

Departure

Time 2026-04-24 01:45
Airport Lubbock Preston Smith International Airport (KLBB)

Arrival

Time N/A
Airport Harry Reid International Airport (KLAS)
Time Latitude Longitude Altitude Speed Heading
2026-04-24 01:37 33.65937 -101.83260 3287 ft 0 kts 181°
2026-04-24 01:38 33.65928 -101.83235 3287 ft 7 kts 101°
2026-04-24 01:38 33.65919 -101.83152 3287 ft 11 kts 86°
2026-04-24 01:39 33.65961 -101.83118 3287 ft 6 kts
2026-04-24 01:39 33.66006 -101.83109 3287 ft 8 kts 27°
2026-04-24 01:39 33.66026 -101.83031 3286 ft 15 kts 89°
2026-04-24 01:39 33.66028 -101.82850 3285 ft 26 kts 89°
2026-04-24 01:40 33.66029 -101.82632 3287 ft 25 kts 90°
2026-04-24 01:40 33.66030 -101.82423 3287 ft 25 kts 89°
2026-04-24 01:40 33.66031 -101.82213 3287 ft 25 kts 90°
2026-04-24 01:40 33.66032 -101.82007 3287 ft 24 kts 90°
2026-04-24 01:41 33.66033 -101.81809 3287 ft 23 kts 89°
2026-04-24 01:41 33.66034 -101.81606 3287 ft 24 kts 90°
2026-04-24 01:41 33.66035 -101.81415 3287 ft 22 kts 89°
2026-04-24 01:41 33.66036 -101.81233 3287 ft 23 kts 89°
2026-04-24 01:42 33.66037 -101.81035 3287 ft 24 kts 89°
2026-04-24 01:42 33.66038 -101.80841 3287 ft 22 kts 89°
2026-04-24 01:42 33.66039 -101.80651 3287 ft 23 kts 90°
2026-04-24 01:42 33.66040 -101.80454 3287 ft 24 kts 90°
2026-04-24 01:43 33.66041 -101.80251 3287 ft 25 kts 89°
2026-04-24 01:43 33.66042 -101.80043 3287 ft 25 kts 90°
2026-04-24 01:43 33.66043 -101.79835 3287 ft 23 kts 90°
2026-04-24 01:43 33.66055 -101.79695 3287 ft 11 kts 53°
2026-04-24 01:44 33.66120 -101.79682 3288 ft 10 kts 360°
2026-04-24 01:44 33.66186 -101.79682 3288 ft 10 kts
2026-04-24 01:44 33.66234 -101.79706 3288 ft 6 kts 281°
2026-04-24 01:44 33.66234 -101.80025 3289 ft 84 kts 270°
2026-04-24 01:45 33.66229 -101.81087 3437 ft 162 kts 270°
2026-04-24 01:45 33.66232 -101.82604 4111 ft 200 kts 271°
2026-04-24 01:45 33.66280 -101.84417 5034 ft 231 kts 270°
2026-04-24 01:45 33.66329 -101.86370 6452 ft 236 kts 270°
2026-04-24 01:46 33.66584 -101.88322 7914 ft 241 kts 292°
2026-04-24 01:46 33.67667 -101.89859 9454 ft 246 kts 319°
2026-04-24 01:46 33.69050 -101.91061 10895 ft 245 kts 317°
2026-04-24 01:46 33.70349 -101.92397 12127 ft 248 kts 312°
2026-04-24 01:47 33.71624 -101.93830 13364 ft 253 kts 311°
2026-04-24 01:47 33.72930 -101.95274 14466 ft 258 kts 312°
2026-04-24 01:47 33.74263 -101.96737 15574 ft 261 kts 311°
2026-04-24 01:47 33.75612 -101.98215 16673 ft 264 kts 311°
2026-04-24 01:48 33.76976 -101.99719 17812 ft 268 kts 310°
2026-04-24 01:48 33.78336 -102.01215 18903 ft 270 kts 310°
2026-04-24 01:48 33.79728 -102.02747 19945 ft 272 kts 311°
2026-04-24 01:48 33.81133 -102.04293 20946 ft 276 kts 311°
2026-04-24 01:49 33.82558 -102.05866 21941 ft 279 kts 311°
2026-04-24 01:49 33.84003 -102.07457 22921 ft 283 kts 311°
2026-04-24 01:49 33.85463 -102.09068 23778 ft 286 kts 311°
2026-04-24 01:49 33.86939 -102.10696 24570 ft 290 kts 310°
2026-04-24 01:50 33.88432 -102.12346 25347 ft 293 kts 310°
2026-04-24 01:50 33.89943 -102.14016 26107 ft 297 kts 309°
2026-04-24 01:50 33.91467 -102.15711 26874 ft 299 kts 308°
2026-04-24 01:50 33.92968 -102.17472 27629 ft 302 kts 307°
2026-04-24 01:51 33.94486 -102.19243 28406 ft 305 kts 307°
2026-04-24 01:51 33.96002 -102.21004 29134 ft 308 kts 307°
2026-04-24 01:51 33.97553 -102.22810 29827 ft 312 kts 306°
2026-04-24 01:51 33.99117 -102.24635 30464 ft 314 kts 306°
2026-04-24 01:52 34.00693 -102.26474 31096 ft 316 kts 306°
2026-04-24 01:52 34.02273 -102.28320 31710 ft 317 kts 306°
2026-04-24 01:52 34.03867 -102.30182 32322 ft 319 kts 306°
2026-04-24 01:52 34.05466 -102.32053 32919 ft 321 kts 306°
2026-04-24 01:53 34.07075 -102.33934 33498 ft 323 kts 306°
2026-04-24 01:53 34.08695 -102.35831 34018 ft 324 kts 306°
2026-04-24 01:53 34.10315 -102.37725 34562 ft 324 kts 306°
2026-04-24 01:53 34.11932 -102.39613 35084 ft 321 kts 304°
2026-04-24 01:54 34.13545 -102.41500 35553 ft 325 kts 306°
2026-04-24 01:54 34.15155 -102.43392 35997 ft 322 kts 304°
2026-04-24 01:54 34.16747 -102.45306 36494 ft 323 kts 304°
2026-04-24 01:54 34.18346 -102.47164 36929 ft 323 kts 304°
2026-04-24 01:55 34.19963 -102.49056 37328 ft 324 kts 303°
2026-04-24 01:55 34.21576 -102.50959 37754 ft 325 kts 303°
2026-04-24 01:55 34.23206 -102.52856 38186 ft 325 kts 303°
2026-04-24 01:55 34.24825 -102.54760 38545 ft 326 kts 303°
2026-04-24 01:56 34.26452 -102.56688 38768 ft 329 kts 303°
2026-04-24 01:56 34.28102 -102.58637 38996 ft 333 kts 304°
2026-04-24 01:56 34.29229 -102.59964 39150 ft 336 kts 304°
2026-04-24 01:56 34.30888 -102.61917 39373 ft 339 kts 304°
2026-04-24 01:57 34.32584 -102.63919 39591 ft 342 kts 305°
2026-04-24 01:57 34.34295 -102.65941 39802 ft 346 kts 305°
2026-04-24 01:57 34.36027 -102.67987 40024 ft 349 kts 306°
2026-04-24 01:57 34.37773 -102.70052 40250 ft 352 kts 306°
2026-04-24 01:58 34.39531 -102.72131 40467 ft 355 kts 306°
2026-04-24 01:58 34.41303 -102.74230 40674 ft 358 kts 306°
2026-04-24 01:58 34.43093 -102.76362 40762 ft 363 kts 305°
2026-04-24 01:59 34.46309 -102.81117 40797 ft 367 kts 297°
2026-04-24 01:59 34.48834 -102.86395 40807 ft 359 kts 290°
2026-04-24 02:00 34.50593 -102.91976 40820 ft 350 kts 282°
2026-04-24 02:00 34.51632 -102.97724 40829 ft 349 kts 278°
2026-04-24 02:01 34.52537 -103.03535 40836 ft 352 kts 278°
2026-04-24 02:01 34.53425 -103.09356 40835 ft 354 kts 278°
2026-04-24 02:02 34.54324 -103.15234 40826 ft 354 kts 278°
2026-04-24 02:02 34.55218 -103.21104 40813 ft 353 kts 277°
2026-04-24 02:03 34.56548 -103.29875 40775 ft 352 kts 277°
2026-04-24 02:03 34.57429 -103.35713 40763 ft 351 kts 277°
2026-04-24 02:04 34.58235 -103.41563 40742 ft 353 kts 276°
2026-04-24 02:04 34.59056 -103.47447 40721 ft 354 kts 277°
2026-04-24 02:05 34.59878 -103.53367 40703 ft 356 kts 277°
2026-04-24 02:05 34.60697 -103.59306 40676 ft 357 kts 277°
2026-04-24 02:06 34.61516 -103.65251 40643 ft 357 kts 277°
2026-04-24 02:06 34.62333 -103.71203 40636 ft 357 kts 276°
2026-04-24 02:07 34.63140 -103.77108 40635 ft 357 kts 276°
2026-04-24 02:07 34.63948 -103.83049 40628 ft 356 kts 276°
2026-04-24 02:08 34.64753 -103.88986 40632 ft 356 kts 276°
2026-04-24 02:08 34.65555 -103.94921 40631 ft 355 kts 276°
2026-04-24 02:09 34.66347 -104.00807 40632 ft 355 kts 276°
2026-04-24 02:09 34.67141 -104.06728 40629 ft 355 kts 276°
2026-04-24 02:10 34.67932 -104.12653 40630 ft 354 kts 276°
2026-04-24 02:10 34.68718 -104.18558 40633 ft 354 kts 276°
2026-04-24 02:11 34.69502 -104.24473 40637 ft 354 kts 276°
2026-04-24 02:11 34.70282 -104.30381 40640 ft 354 kts 276°
2026-04-24 02:12 34.71061 -104.36306 40678 ft 355 kts 276°
2026-04-24 02:12 34.71840 -104.42252 40715 ft 357 kts 276°
2026-04-24 02:13 34.72615 -104.48180 40747 ft 358 kts 276°
2026-04-24 02:13 34.73392 -104.54169 40770 ft 358 kts 276°
2026-04-24 02:14 34.74166 -104.60137 40791 ft 357 kts 276°
2026-04-24 02:14 34.74934 -104.66096 40799 ft 356 kts 276°
2026-04-24 02:15 34.75696 -104.72030 40800 ft 355 kts 276°
2026-04-24 02:15 34.76455 -104.77960 40789 ft 355 kts 276°
2026-04-24 02:16 34.77213 -104.83906 40783 ft 357 kts 276°
2026-04-24 02:16 34.77968 -104.89856 40765 ft 359 kts 276°
2026-04-24 02:17 34.78729 -104.95869 40745 ft 360 kts 276°
2026-04-24 02:17 34.79487 -105.01892 40740 ft 359 kts 276°
2026-04-24 02:18 34.80241 -105.07904 40723 ft 359 kts 276°
2026-04-24 02:18 34.80985 -105.13871 40745 ft 358 kts 276°
2026-04-24 02:19 34.81732 -105.19869 40754 ft 358 kts 276°
2026-04-24 02:19 34.82475 -105.25875 40755 ft 358 kts 276°
2026-04-24 02:20 34.83219 -105.31894 40750 ft 361 kts 276°
2026-04-24 02:20 34.83961 -105.37946 40779 ft 363 kts 276°
2026-04-24 02:21 34.84708 -105.44047 40791 ft 365 kts 276°
2026-04-24 02:21 34.85451 -105.50146 40787 ft 363 kts 276°
2026-04-24 02:22 34.86187 -105.56218 40803 ft 362 kts 276°
2026-04-24 02:22 34.86919 -105.62281 40807 ft 361 kts 276°
2026-04-24 02:23 34.87646 -105.68332 40819 ft 362 kts 276°
2026-04-24 02:23 34.88375 -105.74416 40810 ft 364 kts 276°
2026-04-24 02:24 34.89099 -105.80493 40821 ft 365 kts 276°
2026-04-24 02:24 34.89810 -105.86482 40822 ft 365 kts 276°
2026-04-24 02:25 34.90534 -105.92612 40816 ft 364 kts 276°
2026-04-24 02:25 34.91253 -105.98724 40815 ft 364 kts 276°
2026-04-24 02:26 34.91968 -106.04824 40821 ft 363 kts 276°
2026-04-24 02:26 34.92666 -106.10812 40819 ft 363 kts 276°
2026-04-24 02:27 34.93374 -106.16911 40822 ft 364 kts 276°
2026-04-24 02:27 34.94085 -106.23052 40836 ft 366 kts 276°
2026-04-24 02:28 34.94784 -106.29144 40858 ft 366 kts 276°
2026-04-24 02:28 34.95488 -106.35280 40881 ft 364 kts 276°
2026-04-24 02:29 34.96181 -106.41373 40907 ft 362 kts 276°
2026-04-24 02:29 34.96872 -106.47449 40934 ft 362 kts 276°
2026-04-24 02:30 34.97559 -106.53539 40960 ft 363 kts 276°
2026-04-24 02:30 34.98246 -106.59643 40961 ft 364 kts 276°
2026-04-24 02:31 34.98927 -106.65722 40963 ft 364 kts 276°
2026-04-24 02:31 34.99609 -106.71851 40956 ft 365 kts 276°
2026-04-24 02:32 35.00291 -106.77997 40940 ft 365 kts 276°
2026-04-24 02:32 35.00969 -106.84143 40943 ft 366 kts 276°
2026-04-24 02:33 35.01645 -106.90300 40929 ft 367 kts 276°
2026-04-24 02:33 35.02321 -106.96477 40906 ft 367 kts 276°
2026-04-24 02:34 35.02993 -107.02663 40878 ft 368 kts 276°
2026-04-24 02:34 35.03664 -107.08843 40849 ft 368 kts 276°
2026-04-24 02:35 35.04331 -107.15039 40815 ft 368 kts 276°
2026-04-24 02:35 35.04991 -107.21202 40788 ft 369 kts 276°
2026-04-24 02:36 35.05655 -107.27414 40785 ft 369 kts 276°
2026-04-24 02:36 35.06314 -107.33617 40789 ft 368 kts 276°
2026-04-24 02:37 35.06967 -107.39806 40791 ft 367 kts 276°
2026-04-24 02:37 35.07616 -107.45980 40793 ft 366 kts 276°
2026-04-24 02:38 35.08264 -107.52168 40831 ft 368 kts 276°
2026-04-24 02:38 35.08905 -107.58337 40882 ft 369 kts 276°
2026-04-24 02:39 35.09551 -107.64568 40929 ft 370 kts 276°
2026-04-24 02:39 35.10198 -107.70857 40979 ft 371 kts 276°
2026-04-24 02:40 35.10835 -107.77079 41026 ft 372 kts 275°
2026-04-24 02:40 35.11476 -107.83344 41054 ft 371 kts 275°
2026-04-24 02:41 35.12108 -107.89583 41053 ft 369 kts 275°
2026-04-24 02:41 35.12634 -107.94793 41049 ft 368 kts 275°
2026-04-24 02:42 35.13253 -108.00964 41045 ft 369 kts 275°
2026-04-24 02:42 35.13878 -108.07203 41003 ft 371 kts 275°
2026-04-24 02:43 35.14500 -108.13472 40967 ft 372 kts 275°
2026-04-24 02:43 35.15121 -108.19750 40924 ft 372 kts 275°